Liberia, Costa Rica

5:10 PM CST on June 22, 2017 (GMT -0600)
Daniel Oduber Quiros International

Weather History for MRLB - October, 2014

Change the Weather History Date:

Sunday, October 26, 2014

  Actual Average Record
Temperature  
Mean Temperature 80 °F -  
Max Temperature 88 °F 85 °F 100 °F (1996)
Min Temperature 71 °F 72 °F 69 °F (2005)
Cooling Degree Days 16    
Growing Degree Days 30 (Base 50)    
Moisture  
Dew Point 72 °F    
Average Humidity 84    
Maximum Humidity 100    
Minimum Humidity 55    
Precipitation  
Precipitation 1.34 in - - ()
Sea Level Pressure  
Sea Level Pressure 29.85 in    
Wind  
Wind Speed 4 mph ()    
Max Wind Speed 12 mph    
Max Gust Speed -    
Visibility 6.8 miles    
Events Rain , Thunderstorm    
Averages and records for this station are not official NWS values.
T = Trace of Precipitation, MM = Missing Value Source: Averaged Metar Reports

Daily Weather History Graph

Daily Weather History Graph

Search for Another Location

Airport or City:

Trip Planner

Search our weather history database for the weather conditions in past years. The results will help you decide how hot, cold, wet, or windy it might be!

Date:

Astronomy

Oct. 26, 2014 Rise Set
Actual Time 5:32 AM CST 5:19 PM CST
Civil Twilight 5:10 AM CST 5:41 PM CST
Nautical Twilight 4:45 AM CST 6:06 PM CST
Astronomical Twilight 4:20 AM CST 6:31 PM CST
Moon 7:52 AM CST (10/26) 7:49 PM CST (10/26)
Length of Visible Light 12h 30m
Length of Day
11h 47m
Waxing Crescent, 9% of the Moon is Illuminated
Oct 26
Waxing Crescent
Oct 30
First Quarter
Nov 6
Full
Nov 14
Last Quarter
Nov 22
New

Hourly Weather History & Observations

Time (CST) Temp. Heat Index Dew Point Humidity Pressure Visibility Wind Dir Wind Speed Gust Speed Precip Events Conditions
6:00 AM 75 °F - 73 °F 92% 29.88 in 12 mi NE 3.5 mph - -   Overcast
6:00 AM 75.2 °F - 73.4 °F 94% 29.85 in 6.2 mi NE 3.5 mph - N/A   Mostly Cloudy
7:00 AM 77.0 °F - 71.6 °F 83% 29.86 in 6.2 mi Calm Calm - N/A   Overcast
8:00 AM 77.0 °F - 73.4 °F 89% 29.87 in 6.2 mi South 6.9 mph - N/A   Partly Cloudy
9:00 AM 79 °F - 74 °F 79% 29.92 in 12 mi SW 5.8 mph - -   Overcast
9:00 AM 78.8 °F - 73.4 °F 83% 29.88 in - SW 5.8 mph - N/A   Clear
10:00 AM 86.0 °F 93.4 °F 73.4 °F 66% 29.88 in 6.2 mi SSE 2.3 mph - N/A   Mostly Cloudy
11:00 AM 84.2 °F 90.9 °F 73.4 °F 70% 29.85 in 6.2 mi South 4.6 mph - N/A   Mostly Cloudy
12:00 PM 86 °F - 72 °F 55%  in 12 mi South 4.6 mph - -   Overcast
12:00 PM 86.0 °F 91.8 °F 71.6 °F 62% 29.84 in 6.2 mi South 4.6 mph - N/A   Mostly Cloudy
1:00 PM 86.0 °F 95.1 °F 75.2 °F 70% 29.81 in 6.2 mi SW 3.5 mph - N/A Rain Rain
1:20 PM 80.6 °F 83.9 °F 69.8 °F 70% 29.81 in 6.2 mi WSW 11.5 mph - N/A Rain Rain
1:30 PM 77.0 °F - 71.6 °F 83% 29.81 in 6.2 mi West 9.2 mph - N/A Rain Rain Showers
2:00 PM 77.0 °F - 73.4 °F 89% 29.89 in 6.2 mi WNW 9.2 mph - N/A Rain Rain
2:10 PM 73.4 °F - 71.6 °F 94% 29.81 in 1.2 mi WNW 9.2 mph - N/A Rain , Thunderstorm Thunderstorms and Rain
3:00 PM 73 °F - 71 °F 93% 29.84 in 2 mi SSW 4.6 mph - - Rain Light Rain
3:00 PM 73.4 °F - 71.6 °F 94% 29.81 in 6.2 mi SSW 4.6 mph - N/A Rain Rain
4:00 PM 73.4 °F - 71.6 °F 94% 29.83 in 6.2 mi South 8.1 mph - N/A Rain Rain
5:00 PM 73.4 °F - 71.6 °F 94% 29.84 in 6.2 mi South 4.6 mph - N/A Rain Light Rain
6:00 PM 73 °F - 71 °F 91% 29.89 in 12 mi SSW 2.3 mph - -   Partly Cloudy
6:00 PM 73.4 °F - 71.6 °F 94% 29.85 in 6.2 mi SSW 2.3 mph - N/A   Mostly Cloudy
7:00 PM 73.4 °F - 71.6 °F 94% 29.86 in 6.2 mi NNE 2.3 mph - N/A   Mostly Cloudy
8:00 PM 71.6 °F - 71.6 °F 100% 29.89 in 6.2 mi South 2.3 mph - N/A   Scattered Clouds